Location: Alando
(42.3054°N, 9.2895°E)
Time: 21:36:13
(UTC+00:00)

Cosmos 407 Rocket - Pass Details

Date: 09 April 2020
Orbit: 743 x 787 km, 74.0° (Epoch: 05 June)

Event Time Altitude Azimuth Distance (km) Brightness Sun altitude
Rises 19:01:28 0° 202° (SSW) 3,187 6.7 -12.0°
Reaches altitude 10° 19:03:50 10° 203° (SSW) 2,262 5.9 -12.4°
Maximum altitude 19:08:57 78° 290° (WNW) 766 3.6 -13.3°
Drops below altitude 10° 19:14:05 10° 17° (NNE) 2,265 6.0 -14.1°
Sets 19:16:27 0° 19° (NNE) 3,192 6.8 -14.5°
